• In Russia
  • List of Countries
  • For 7 days
  • Water Temperature
  • Satellite Maps
  • Weather Map
  • Weather Widgets
  • user-avatar
    Login

    Hourly Weather Burdukovo

    Today, 16 July, Monday

    Time Temperature Precipitation Wind Pressure Humidity
    00:00 +20°C° 0 mm 1 mps 708 mmHg 75%
    01:00 +19°C° 0 mm 1 mps 708 mmHg 77%
    02:00 +19°C° 0 mm 1 mps 708 mmHg 78%
    03:00 +19°C° 0 mm 1 mps 708 mmHg 79%
    04:00 +18°C° 0 mm 1 mps 708 mmHg 80%
    05:00 +20°C° 0 mm 1 mps 708 mmHg 74%
    06:00 +22°C° 0 mm 1 mps 708 mmHg 67%
    07:00 +24°C° 0 mm 1 mps 708 mmHg 58%
    08:00 +26°C° 0 mm 1 mps 708 mmHg 53%
    09:00 +27°C° 0 mm 1 mps 708 mmHg 47%
    10:00 +29°C° 0 mm 1 mps 708 mmHg 42%
    11:00 +30°C° 0 mm 2 mps 708 mmHg 40%
    12:00 +31°C° 0 mm 2 mps 708 mmHg 37%
    13:00 +32°C° 0 mm 2 mps 707 mmHg 34%
    14:00 +31°C° 0 mm 2 mps 707 mmHg 37%
    15:00 +30°C° 0 mm 2 mps 707 mmHg 40%
    16:00 +29°C° 0 mm 2 mps 707 mmHg 44%
    17:00 +28°C° 0 mm 2 mps 707 mmHg 48%
    18:00 +27°C° 0 mm 2 mps 707 mmHg 52%
    19:00 +26°C° 0 mm 2 mps 707 mmHg 57%
    20:00 +24°C° 0.1 mm 2 mps 707 mmHg 64%
    21:00 +22°C° 0.1 mm 1 mps 707 mmHg 71%
    22:00 +20°C° 0.1 mm 1 mps 708 mmHg 78%
    23:00 +20°C° 0.2 mm 1 mps 708 mmHg 79%

    Tomorrow, 17 July, Tuesday

    Time Temperature Precipitation Wind Pressure Humidity
    00:00 +19°C° 0.2 mm 1 mps 708 mmHg 81%
    01:00 +18°C° 0.2 mm 1 mps 708 mmHg 83%
    02:00 +18°C° 0 mm 1 mps 708 mmHg 84%
    03:00 +18°C° 0 mm 1 mps 708 mmHg 85%
    04:00 +16°C° 0 mm 1 mps 708 mmHg 85%
    05:00 +19°C° 0 mm 1 mps 708 mmHg 79%
    06:00 +21°C° 0 mm 1 mps 709 mmHg 72%
    07:00 +23°C° 0 mm 1 mps 709 mmHg 65%
    08:00 +25°C° 0 mm 2 mps 709 mmHg 59%
    09:00 +27°C° 0 mm 2 mps 709 mmHg 53%
    10:00 +28°C° 0 mm 2 mps 709 mmHg 46%
    11:00 +29°C° 0 mm 3 mps 709 mmHg 44%
    12:00 +30°C° 0 mm 3 mps 709 mmHg 41%
    13:00 +31°C° 0 mm 3 mps 708 mmHg 38%
    14:00 +31°C° 0 mm 3 mps 708 mmHg 39%
    15:00 +31°C° 0 mm 3 mps 708 mmHg 39%
    16:00 +31°C° 0 mm 3 mps 708 mmHg 39%
    17:00 +29°C° 0 mm 3 mps 708 mmHg 44%
    18:00 +28°C° 0 mm 3 mps 708 mmHg 50%
    19:00 +26°C° 0 mm 2 mps 708 mmHg 56%
    20:00 +24°C° 0.1 mm 2 mps 708 mmHg 63%
    21:00 +21°C° 0.1 mm 2 mps 708 mmHg 70%
    22:00 +19°C° 0.1 mm 2 mps 708 mmHg 78%
    23:00 +18°C° 0.1 mm 2 mps 708 mmHg 79%

    Day after tomorrow, 18 July, Wednesday

    Time Temperature Precipitation Wind Pressure Humidity
    00:00 +18°C° 0.1 mm 1 mps 708 mmHg 80%
    01:00 +18°C° 0.1 mm 1 mps 708 mmHg 81%
    02:00 +18°C° 0.1 mm 1 mps 708 mmHg 82%
    03:00 +16°C° 0.1 mm 1 mps 708 mmHg 83%
    04:00 +16°C° 0.1 mm 1 mps 708 mmHg 83%
    05:00 +19°C° 0 mm 1 mps 708 mmHg 76%
    06:00 +21°C° 0 mm 1 mps 708 mmHg 70%
    07:00 +23°C° 0 mm 2 mps 708 mmHg 63%
    08:00 +25°C° 0 mm 2 mps 709 mmHg 56%
    09:00 +27°C° 0 mm 2 mps 709 mmHg 50%
    10:00 +30°C° 0 mm 2 mps 709 mmHg 44%
    11:00 +30°C° 0 mm 2 mps 708 mmHg 42%
    12:00 +31°C° 0 mm 2 mps 708 mmHg 40%
    13:00 +33°C° 0 mm 3 mps 708 mmHg 38%
    14:00 +33°C° 0 mm 3 mps 708 mmHg 40%
    15:00 +31°C° 0 mm 2 mps 708 mmHg 43%
    16:00 +30°C° 0 mm 2 mps 707 mmHg 45%
    17:00 +29°C° 0 mm 2 mps 707 mmHg 50%
    18:00 +28°C° 0 mm 2 mps 708 mmHg 56%
    19:00 +27°C° 0 mm 2 mps 708 mmHg 61%
    20:00 +25°C° 0.1 mm 2 mps 708 mmHg 68%
    21:00 +23°C° 0.1 mm 1 mps 708 mmHg 75%
    22:00 +21°C° 0.1 mm 1 mps 708 mmHg 83%
    23:00 +21°C° 0.3 mm 1 mps 708 mmHg 85%

    19 July, Thursday

    Time Temperature Precipitation Wind Pressure Humidity
    00:00 +20°C° 0.3 mm 1 mps 708 mmHg 87%
    01:00 +20°C° 0.3 mm 1 mps 708 mmHg 89%
    02:00 +20°C° 0.2 mm 1 mps 708 mmHg 90%
    03:00 +20°C° 0.2 mm 1 mps 708 mmHg 92%
    04:00 +20°C° 0.2 mm 1 mps 708 mmHg 93%
    05:00 +21°C° 0.1 mm 1 mps 708 mmHg 89%
    06:00 +21°C° 0.1 mm 2 mps 709 mmHg 85%
    07:00 +23°C° 0.1 mm 2 mps 709 mmHg 81%
    08:00 +25°C° 0.1 mm 2 mps 709 mmHg 76%
    09:00 +26°C° 0.1 mm 2 mps 709 mmHg 70%
    10:00 +27°C° 0.1 mm 3 mps 709 mmHg 64%
    11:00 +28°C° 0.3 mm 3 mps 709 mmHg 61%
    12:00 +29°C° 0.3 mm 3 mps 708 mmHg 57%
    13:00 +31°C° 0.3 mm 3 mps 708 mmHg 53%
    14:00 +31°C° 0.2 mm 3 mps 708 mmHg 52%
    15:00 +31°C° 0.2 mm 3 mps 707 mmHg 50%
    16:00 +31°C° 0.2 mm 3 mps 707 mmHg 49%
    17:00 +30°C° 0.1 mm 3 mps 707 mmHg 54%
    18:00 +29°C° 0.1 mm 3 mps 707 mmHg 59%
    19:00 +28°C° 0.1 mm 3 mps 706 mmHg 64%
    20:00 +26°C° 0.5 mm 3 mps 706 mmHg 71%
    21:00 +24°C° 0.5 mm 2 mps 706 mmHg 78%
    22:00 +23°C° 0.5 mm 2 mps 706 mmHg 85%
    23:00 +21°C° 1 mm 2 mps 705 mmHg 87%

    20 July, Friday

    Time Temperature Precipitation Wind Pressure Humidity
    00:00 +21°C° 1 mm 2 mps 705 mmHg 90%
    01:00 +21°C° 1 mm 2 mps 705 mmHg 92%
    02:00 +20°C° 1.7 mm 2 mps 704 mmHg 93%
    03:00 +20°C° 1.7 mm 2 mps 704 mmHg 95%
    04:00 +20°C° 1.7 mm 2 mps 704 mmHg 96%
    05:00 +20°C° 0.8 mm 2 mps 704 mmHg 95%
    06:00 +22°C° 0.8 mm 1 mps 704 mmHg 93%
    07:00 +22°C° 0.8 mm 1 mps 704 mmHg 91%
    08:00 +23°C° 0.5 mm 1 mps 704 mmHg 90%
    09:00 +23°C° 0.5 mm 1 mps 704 mmHg 89%
    10:00 +24°C° 0.5 mm 1 mps 704 mmHg 87%
    11:00 +24°C° 0.4 mm 2 mps 704 mmHg 84%
    12:00 +25°C° 0.4 mm 3 mps 704 mmHg 80%
    13:00 +25°C° 0.4 mm 3 mps 704 mmHg 76%
    14:00 +25°C° 0 mm 3 mps 704 mmHg 73%
    15:00 +23°C° 0 mm 4 mps 704 mmHg 70%
    16:00 +23°C° 0 mm 4 mps 704 mmHg 66%
    17:00 +22°C° 0 mm 3 mps 705 mmHg 68%
    18:00 +21°C° 0 mm 3 mps 705 mmHg 71%
    19:00 +20°C° 0 mm 3 mps 705 mmHg 73%
    20:00 +18°C° 0 mm 2 mps 705 mmHg 79%
    21:00 +17°C° 0 mm 2 mps 705 mmHg 84%
    22:00 +15°C° 0 mm 2 mps 705 mmHg 90%
    23:00 +15°C° 0 mm 1 mps 705 mmHg 90%

    21 July, Saturday

    Time Temperature Precipitation Wind Pressure Humidity
    00:00 +15°C° 0 mm 1 mps 705 mmHg 90%
    01:00 +14°C° 0 mm 1 mps 705 mmHg 90%
    02:00 +14°C° 0 mm 1 mps 705 mmHg 91%
    03:00 +14°C° 0 mm 1 mps 704 mmHg 92%
    04:00 +13°C° 0 mm 1 mps 704 mmHg 94%
    05:00 +14°C° 0 mm 1 mps 705 mmHg 88%
    06:00 +15°C° 0 mm 2 mps 705 mmHg 83%
    07:00 +17°C° 0 mm 2 mps 705 mmHg 78%
    08:00 +17°C° 0 mm 3 mps 705 mmHg 75%
    09:00 +18°C° 0 mm 4 mps 705 mmHg 72%
    10:00 +19°C° 0 mm 4 mps 706 mmHg 70%
    11:00 +19°C° 0.2 mm 5 mps 706 mmHg 71%
    12:00 +19°C° 0.2 mm 6 mps 706 mmHg 72%
    13:00 +19°C° 0.2 mm 6 mps 706 mmHg 73%
    14:00 +17°C° 0.2 mm 6 mps 706 mmHg 77%
    15:00 +16°C° 0.2 mm 5 mps 707 mmHg 80%
    16:00 +16°C° 0.2 mm 5 mps 707 mmHg 84%
    17:00 +15°C° 0.1 mm 4 mps 708 mmHg 86%
    18:00 +15°C° 0.1 mm 4 mps 708 mmHg 87%
    19:00 +16°C° 0.1 mm 3 mps 709 mmHg 89%
    20:00 +16°C° 0 mm 3 mps 709 mmHg 90%
    21:00 +14°C° 0 mm 3 mps 709 mmHg 92%
    22:00 +15°C° 0 mm 2 mps 710 mmHg 93%
    23:00 +14°C° 0 mm 2 mps 710 mmHg 94%
    Show more